Location: Benalto
(52.3088°N, 114.2787°W)
Time: 02:15:47
(UTC+00:00)

Tiangong - Visible Passes

Search period start: 09 December 2021 00:00
Search period end: 19 December 2021 00:00
Orbit: 379 x 385 km, 41.5° (Epoch: 08 December)

Date Brightness Start Highest point End Pass type
(mag) Time Alt. Az. Time Alt. Az. Time Alt. Az.
13 Dec 3.9 01:55:56 10° SSW 01:56:53 12° S 01:56:53 12° S visible
14 Dec 3.9 00:56:03 10° S 00:56:54 11° S 00:57:45 10° SSE visible
15 Dec 3.8 01:31:09 10° SSW 01:32:29 12° S 01:33:40 10° SSE visible
16 Dec 3.9 00:30:52 10° SSW 00:32:09 12° S 00:33:25 10° SSE visible
17 Dec 4.0 01:06:35 10° SSW 01:07:42 11° S 01:08:48 10° SSE visible
18 Dec 4.0 00:05:59 10° SSW 00:07:19 12° S 00:08:39 10° SSE visible
